sat.trackr.live / text

‹ back to catalog

CENTISPACE-1 S1

NORAD 43636 · 2018-075A

PAYLOAD ACTIVE UNKNOWN

§ Identity

Operator
Country
PRC
Launch date
2018-09-29
Launch site
JSC
Launch vehicle
Mass (kg)
RCS (m²)

External: N2YO · Heavens-Above · Gunter

§ Orbital elements

Epoch: 2026-05-25T03:35:21.888960Z

Period
98.63 min
Inclination
97.8737°
Eccentricity
0.0008412
Mean motion
14.59965489 rev/d
Perigee alt
687.3 km
Apogee alt
699.2 km
Semi-major
7,071.4 km
B*
1.0883e-4
RAAN
170.0699°
Arg perigee
183.5912°
Mean anomaly
176.5230°
Rev number
40,719

§ Raw data

CENTISPACE-1 S11 43636U 18075A   26145.14955890  .00000479  00000+0  10883-3 0  99942 43636  97.8737 170.0699 0008412 183.5912 176.5230 14.59965489407196

JSON: /api/v1/satellites/43636 · /tle

For live sub-satellite position, see the globe view (requires WebGL).

§ Visibility from observer

Set your observer location to see the next 7 days of passes ≥ 10°. The values pass through the URL so the page stays shareable.

No JS? Fill the form by hand. The geolocation button needs JavaScript.